Huron, SD

7:14 AM CST on December 10, 2019 (GMT -0600)
Huron Regional

Weather History for KHON - November, 2019

Change the Weather History Date:

Monday, November 11, 2019

  Actual Average Record
Temperature  
Mean Temperature 10 °F 35 °F  
Max Temperature 16 °F 46 °F 71 °F (1999)
Min Temperature 5 °F 25 °F -10 °F (1986)
Degree Days  
Heating Degree Days 54 30  
Month to date heating degree days 397 296  
Since 1 July heating degree days 1173 1026  
Cooling Degree Days 0 0  
Month to date cooling degree days 0 0  
Year to date cooling degree days 714 742  
Moisture  
Dew Point 4 °F    
Average Humidity 73    
Maximum Humidity 96    
Minimum Humidity 56    
Precipitation  
Precipitation T in 0.03 in 0.45 in (2000)
Month to date precipitation 0.34 0.38  
Year to date precipitation 35.48 21.89  
Snow  
Snow T in 0.20 in 4.50 in (2000)
Month to date snowfall 2.7 1.8  
Since 1 July snowfall 8.5 2.9  
Since 1 September snowfall 8.5 2.9  
Snow Depth T in    
Sea Level Pressure  
Sea Level Pressure 30.72 in    
Wind  
Wind Speed 14 mph ()    
Max Wind Speed 24 mph    
Max Gust Speed 35 mph    
Visibility 8.3 miles    
Events Snow    
T = Trace of Precipitation, MM = Missing Value Source: Averaged Metar Reports

Daily Weather History Graph

Daily Weather History Graph

Search for Another Location

Airport or City:

Astronomy

Nov. 11, 2019 Rise Set
Actual Time 7:23 AM CST 5:09 PM CST
Civil Twilight 6:52 AM CST 5:41 PM CST
Nautical Twilight 6:17 AM CST 6:15 PM CST
Astronomical Twilight 5:43 AM CST 6:50 PM CST
Moon 5:09 PM CST (11/11) 6:11 AM CST (11/11)
Length of Visible Light 10h 48m
Length of Day
9h 46m
Waxing Gibbous, 99% of the Moon is Illuminated
Nov 11
Waxing Gibbous
Nov 12
Full
Nov 19
Last Quarter
Nov 26
New
Dec 4
First Quarter

Hourly Weather History & Observations

Time (CST) Temp. Windchill Dew Point Humidity Pressure Visibility Wind Dir Wind Speed Gust Speed Precip Events Conditions
12:55 AM 15.1 °F -1.1 °F 8.1 °F 74% 30.65 in 10.0 mi NNW 17.3 mph 21.9 mph 0.00 in   Clear
1:55 AM 14.0 °F -3.0 °F 9.0 °F 80% 30.67 in 10.0 mi NNW 18.4 mph 24.2 mph N/A   Overcast
2:19 AM 14.0 °F -3.9 °F 9.0 °F 80% 30.59 in 7.0 mi NNW 20.7 mph 26.5 mph 0.00 in Snow Light Snow
2:43 AM 14.0 °F -2.5 °F 8.1 °F 77% 30.61 in 7.0 mi NNW 17.3 mph - 0.00 in Snow Light Snow
2:55 AM 12.9 °F -5.7 °F 7.0 °F 77% 30.69 in 7.0 mi NNW 21.9 mph 28.8 mph 0.00 in Snow Light Snow
3:37 AM 12.0 °F -7.3 °F 5.0 °F 73% 30.63 in 10.0 mi NNW 23.0 mph 31.1 mph 0.00 in   Overcast
3:47 AM 10.9 °F -7.0 °F 3.9 °F 73% 30.64 in 10.0 mi NNW 18.4 mph 31.1 mph 0.00 in   Overcast
3:55 AM 10.9 °F -7.5 °F 3.0 °F 70% 30.72 in 10.0 mi NNW 19.6 mph - 0.00 in   Overcast
4:55 AM 8.1 °F -6.2 °F 3.0 °F 80% 30.74 in 10.0 mi NNW 10.4 mph - N/A   Partly Cloudy
5:55 AM 7.0 °F -6.6 °F 1.9 °F 80% 30.76 in 10.0 mi NNW 9.2 mph - N/A   Partly Cloudy
6:55 AM 8.1 °F -7.7 °F 1.0 °F 73% 30.77 in 10.0 mi NNW 12.7 mph - N/A   Mostly Cloudy
7:55 AM 9.0 °F -7.3 °F 1.9 °F 73% 30.78 in 10.0 mi NNW 13.8 mph - N/A   Mostly Cloudy
8:55 AM 10.9 °F -6.5 °F 3.9 °F 73% 30.79 in 7.0 mi NW 17.3 mph - N/A   Overcast
9:40 AM 12.9 °F -4.4 °F 5.0 °F 71% 30.70 in 7.0 mi NNW 18.4 mph - 0.00 in   Mostly Cloudy
9:55 AM 12.9 °F -4.4 °F 3.9 °F 67% 30.78 in 10.0 mi NNW 18.4 mph - 0.00 in   Overcast
10:03 AM 12.0 °F -6.5 °F 3.9 °F 70% 30.70 in 9.0 mi NNW 20.7 mph - N/A   Overcast
10:13 AM 12.9 °F -5.3 °F 5.0 °F 71% 30.70 in 10.0 mi NNW 20.7 mph - N/A   Overcast
10:50 AM 12.2 °F -7.1 °F -0.4 °F 57% 30.70 in 10.0 mi NNW 23.0 mph 33.4 mph 0.00 in   Mostly Cloudy
10:55 AM 12.9 °F -6.5 °F 1.0 °F 59% 30.79 in 10.0 mi North 24.2 mph 32.2 mph 0.00 in   Scattered Clouds
11:55 AM 14.0 °F -3.9 °F 1.0 °F 56% 30.79 in 10.0 mi North 20.7 mph - N/A   Scattered Clouds
12:55 PM 14.0 °F -2.5 °F 1.9 °F 59% 30.78 in 10.0 mi NNW 17.3 mph 27.6 mph N/A   Overcast
1:55 PM 15.1 °F -1.1 °F 3.9 °F 61% 30.77 in 10.0 mi NW 17.3 mph 23.0 mph N/A   Overcast
2:09 PM 12.9 °F -2.2 °F 6.1 °F 74% 30.69 in 1.8 mi NW 13.8 mph - 0.00 in Snow Light Snow
2:17 PM 12.0 °F -2.0 °F 6.1 °F 77% 30.69 in 0.8 mi NW 11.5 mph - 0.00 in Snow Light Snow
2:27 PM 14.0 °F -0.8 °F 5.0 °F 67% 30.68 in 2.0 mi NNW 13.8 mph 21.9 mph 0.00 in Snow Light Snow
2:34 PM 14.0 °F -0.2 °F 5.0 °F 67% 30.68 in 5.0 mi North 12.7 mph 21.9 mph 0.00 in Snow Light Snow
2:55 PM 14.0 °F -0.8 °F 3.9 °F 64% 30.76 in 7.0 mi NNW 13.8 mph - 0.00 in   Overcast
3:09 PM 12.2 °F -4.3 °F 6.8 °F 79% 30.67 in 1.8 mi NW 16.1 mph - N/A Snow Light Snow
3:21 PM 12.9 °F -2.8 °F 3.9 °F 67% 30.67 in 3.0 mi NNW 15.0 mph - 0.00 in Snow Light Snow
3:55 PM 12.9 °F -2.2 °F 3.0 °F 65% 30.76 in 10.0 mi NW 13.8 mph - 0.00 in   Mostly Cloudy
4:55 PM 10.9 °F -2.6 °F 1.9 °F 67% 30.76 in 10.0 mi NNW 10.4 mph - 0.00 in   Partly Cloudy
5:55 PM 10.0 °F 0.4 °F 3.0 °F 73% 30.76 in 10.0 mi NNW 5.8 mph - N/A   Mostly Cloudy
6:55 PM 7.0 °F 0.1 °F 3.9 °F 87% 30.76 in 10.0 mi NNW 3.5 mph - N/A   Clear
7:55 PM 8.1 °F 1.4 °F 3.9 °F 83% 30.75 in 10.0 mi NW 3.5 mph - N/A   Partly Cloudy
8:55 PM 6.1 °F - 1.9 °F 83% 30.74 in 10.0 mi Calm Calm - N/A   Clear
9:55 PM 6.1 °F - 3.0 °F 87% 30.74 in 10.0 mi Calm Calm - N/A   Clear
10:55 PM 5.0 °F -2.1 °F 3.0 °F 92% 30.73 in 10.0 mi SE 3.5 mph - N/A   Clear
11:55 PM 6.1 °F -2.8 °F 3.0 °F 87% 30.69 in 10.0 mi SSE 4.6 mph - N/A   Clear